Satellite-Ground Cal/Val Site Overpasses Predictions

Prediction of Satellite NPP Overpassing Cal/Val Site: Antarctic Dome C

Ground Cal/Val Site Location: Latitude: -75.10, Longitude: 123.35; Satellite-Ground Site NADIR distance within 100 km.

Table of predicted overpasses for the next 14.0 days since TLE Epoch: 10/25/2019
Interval Starting Time Ending Time Minimum Distance Time Minimum Distance (km)
1 10/26/2019 07:25:27 10/26/2019 07:25:54 10/26/2019 07:25:40 34.41
2 10/28/2019 15:07:52 10/28/2019 15:08:01 10/28/2019 15:07:57 94.65
3 10/29/2019 14:48:51 10/29/2019 14:49:20 10/29/2019 14:49:06 16.73
4 10/31/2019 07:31:40 10/31/2019 07:32:09 10/31/2019 07:31:55 3.89
5 11/03/2019 14:55:06 11/03/2019 14:55:35 11/03/2019 14:55:21 19.93
6 11/04/2019 14:36:24 11/04/2019 14:36:38 11/04/2019 14:36:31 87.13
7 11/05/2019 07:37:56 11/05/2019 07:38:23 11/05/2019 07:38:09 38.58
8 11/06/2019 07:19:10 11/06/2019 07:19:30 11/06/2019 07:19:20 71.51


NCC Satellite Cal/Val Overpasses Prediction Service
